DateTimeUTC,F1_A11,F1_S11,BsB_S11,BsG_S11,BsR_S11,BbsB_S11,BbsG_S11,BbsR_S11,BaB_A11,BaG_A11,BaR_A11,Tu_S11,T_S11,Uu_S11,U_S11,P_S11,T1_A11
2021-11-06T18:00:00Z,00000200,21000000,,,,,,,-000.16,-000.65,-000.47,17.6,25.0,,00.0,0645.9,30.8
2021-11-06T18:01:00Z,00000200,21000000,,,,,,,-000.05,0000.18,0000.41,17.6,25.0,,00.0,0645.9,30.8
2021-11-06T18:02:00Z,00000200,21000000,,,,,,,-000.15,-000.25,-000.35,17.6,25.0,,00.0,0645.9,30.8
2021-11-06T18:03:00Z,00000200,61000000,,,,,,,0000.13,0000.16,-000.07,17.6,25.0,,00.0,0646.0,30.8
2021-11-06T18:04:00Z,00000200,41000000,0000.07,0000.57,0000.10,0000.14,0000.15,-000.10,0000.08,-000.03,0000.01,17.8,24.8,,00.0,0646.9,30.8
2021-11-06T18:05:00Z,00000200,01000000,0000.66,0000.10,0000.37,0000.41,0000.04,0000.06,0000.01,0000.00,0000.10,17.8,24.8,,00.0,0647.0,30.9
2021-11-06T18:06:00Z,00000200,01000000,0000.93,0000.45,0000.27,0000.20,0000.34,0000.09,0000.24,0000.33,0000.31,17.8,24.7,,00.0,0647.1,30.9
2021-11-06T18:07:00Z,00000200,01000000,0001.25,0000.16,-000.08,-000.17,0000.14,0000.26,0000.06,0000.12,0000.19,17.9,24.7,,00.0,0647.2,30.9
2021-11-06T18:08:00Z,00000200,01000000,0000.50,0000.42,-000.08,-000.15,0000.01,0000.06,0000.36,0000.13,0000.05,17.9,24.7,,00.0,0647.1,30.9
2021-11-06T18:09:00Z,00000200,01000000,0001.10,0000.25,-000.17,0000.54,-000.06,0000.04,0000.06,0000.51,-000.02,17.9,24.7,,00.0,0647.2,30.9
2021-11-06T18:10:00Z,00000200,01000000,0000.78,0000.45,0000.20,0000.68,0000.27,-000.03,0002.37,0001.83,0001.35,17.9,24.7,,00.0,0647.2,30.9
2021-11-06T18:11:00Z,00000200,01000000,0007.15,0005.03,0003.05,0001.92,0000.89,0000.88,0087.79,0081.18,0065.52,17.9,24.7,,00.0,0647.2,30.9
2021-11-06T18:12:00Z,00000200,01000000,0000.78,0000.46,0000.07,0000.54,-000.44,-000.18,0002.99,0003.15,0002.63,17.9,24.7,,00.0,0647.2,30.9
2021-11-06T18:13:00Z,00000200,01000000,0001.23,0000.49,0000.14,0000.74,-000.11,0000.04,0000.80,0000.42,0000.36,17.9,24.7,,00.0,0647.1,30.9
2021-11-06T18:14:00Z,00000200,01000000,0001.00,0000.23,0000.04,0000.62,0000.24,0000.14,0001.49,0001.43,0000.94,17.9,24.7,,00.0,0647.0,30.9
2021-11-06T18:15:00Z,00000200,01000000,0004.69,0003.36,0001.84,0001.19,0000.75,0000.73,0049.20,0045.67,0036.45,17.9,24.7,,00.0,0646.9,30.9
2021-11-06T18:16:00Z,00000200,01000000,0001.10,0000.49,0000.30,0000.95,-000.02,-000.16,0006.63,0006.49,0005.08,17.9,24.7,,00.0,0647.0,30.9
2021-11-06T18:17:00Z,00000200,01000000,0000.40,0000.18,0000.05,-000.37,0000.32,0000.14,0000.56,-000.00,0000.50,17.9,24.7,,00.0,0647.0,30.9
2021-11-06T18:18:00Z,00000200,01000000,0000.33,0000.34,-000.00,-000.15,0000.18,-000.10,0000.46,0000.75,0000.44,17.9,24.7,,00.0,0647.1,30.9
2021-11-06T18:19:00Z,00000200,01000000,0000.65,0000.68,-000.07,0000.22,0000.08,0000.24,0000.42,0000.11,0000.06,17.9,24.7,,00.0,0647.1,30.9
2021-11-06T18:20:00Z,00000200,01000000,0000.24,0000.60,-000.11,0000.14,0000.29,-000.04,0000.38,0000.36,0000.29,17.9,24.7,,00.0,0647.2,30.9
2021-11-06T18:21:00Z,00000200,01000000,0000.57,0000.63,0000.10,0000.30,-000.08,0000.14,0000.11,-000.19,-000.21,17.9,24.7,,00.0,0647.2,30.9
2021-11-06T18:22:00Z,00000200,01000000,0001.06,0000.77,0000.03,0000.45,0000.12,0000.08,0000.98,0001.22,0001.02,17.9,24.7,,00.0,0647.2,30.9
2021-11-06T18:23:00Z,00000200,01000000,0001.09,0000.64,0000.00,0000.27,0000.02,-000.15,0003.23,0002.86,0002.23,17.9,24.7,,00.0,0647.2,30.9
2021-11-06T18:24:00Z,00000200,01000000,0000.96,0000.44,-000.02,0000.02,-000.19,0000.15,0000.46,0000.52,0000.34,17.9,24.7,,00.0,0647.2,30.9
2021-11-06T18:25:00Z,00000200,01000000,0000.77,0000.29,0000.31,0000.11,0000.18,0000.10,0000.25,0000.28,0000.37,17.9,24.7,,00.0,0647.1,30.9
2021-11-06T18:26:00Z,00000200,01000000,0000.52,0000.39,-000.24,0000.59,-000.03,0000.18,0000.33,0000.07,-000.14,17.9,24.7,,00.0,0647.0,30.9
2021-11-06T18:27:00Z,00000200,01000000,0000.95,0000.24,0000.01,0000.32,0000.15,0000.17,-000.13,0000.07,0000.37,17.9,24.7,,00.0,0647.1,30.9
2021-11-06T18:28:00Z,00000200,01000000,0000.97,0000.44,0000.04,0000.04,-000.01,0000.26,0000.26,0000.27,-000.13,18.0,24.7,,00.0,0647.1,30.9
2021-11-06T18:29:00Z,00000200,01000000,0001.22,0000.49,0000.17,0000.24,0000.24,-000.11,0000.32,0000.51,0000.13,17.9,24.7,,00.0,0647.1,30.9
2021-11-06T18:30:00Z,00000200,01000000,0001.11,0000.50,0000.08,0000.53,0000.22,0000.24,0000.27,-000.01,0000.26,17.9,24.7,,00.0,0647.1,30.9
2021-11-06T18:31:00Z,00000200,01000000,0000.44,0000.28,0000.03,-000.42,0000.05,0000.04,-000.02,-000.13,-000.07,17.9,24.7,,00.0,0647.1,30.9
2021-11-06T18:32:00Z,00000200,01000000,0000.88,0000.16,0000.24,0000.65,-000.13,0000.39,0000.25,0000.09,0000.37,18.0,24.7,,00.0,0647.1,30.9
2021-11-06T18:33:00Z,00000200,01000000,0001.54,0000.23,0000.06,0000.29,0000.29,-000.07,0000.66,0000.44,0000.16,17.9,24.7,,00.0,0647.1,30.9
2021-11-06T18:34:00Z,00000200,01000000,0000.15,0000.46,-000.31,-000.26,0000.32,0000.05,-000.05,0000.16,0000.24,17.9,24.7,,00.0,0647.0,30.9
2021-11-06T18:35:00Z,00000200,01000000,0000.36,0000.40,0000.02,0000.33,0000.30,0000.00,0000.28,0000.26,-000.14,17.9,24.7,,00.0,0647.0,30.9
2021-11-06T18:36:00Z,00000200,01000000,0000.10,0000.42,-000.06,0000.58,0000.12,-000.25,0000.21,0000.16,0000.09,17.9,24.7,,00.0,0647.0,30.9
2021-11-06T18:37:00Z,00000200,01000000,0000.83,0000.27,-000.18,0000.36,0000.16,-000.03,0000.04,-000.12,0000.26,17.9,24.6,,00.0,0647.1,30.9
2021-11-06T18:38:00Z,00000200,01000000,0000.77,0000.35,0000.08,-000.14,0000.33,-000.00,0000.08,0000.39,0000.48,17.9,24.7,,00.0,0647.1,30.9
2021-11-06T18:39:00Z,00000200,01000000,0000.97,0000.47,-000.01,-000.10,0000.15,0000.26,0000.33,0000.39,-000.03,18.0,24.6,,00.0,0647.2,30.9
2021-11-06T18:40:00Z,00000200,01000000,0004.27,0003.03,0001.71,0000.80,0000.72,0000.32,0039.20,0036.08,0028.68,18.0,24.7,,00.0,0647.1,30.9
2021-11-06T18:41:00Z,00000200,01000000,0013.21,0009.54,0005.48,0002.55,0002.11,0001.72,0161.01,0149.14,0119.20,18.0,24.7,,00.0,0647.1,30.9
2021-11-06T18:42:00Z,00000200,01000000,0011.26,0007.96,0005.10,0002.23,0002.34,0001.33,0145.69,0134.75,0108.56,18.0,24.7,,00.0,0647.0,30.9
2021-11-06T18:43:00Z,00000200,01000000,0003.85,0003.36,0001.47,0001.14,0000.47,0001.02,0057.29,0053.18,0043.32,17.9,24.7,,00.0,0647.0,30.9
2021-11-06T18:44:00Z,00000200,01000000,0000.60,0000.57,0000.14,0000.59,0000.13,0000.16,0004.34,0004.26,0003.29,17.9,24.7,,00.0,0647.1,30.9
2021-11-06T18:45:00Z,00000200,01000000,0000.41,0000.37,-000.03,0000.26,0000.07,0000.12,0002.08,0001.99,0001.60,18.0,24.7,,00.0,0647.1,30.9
2021-11-06T18:46:00Z,00000200,01000000,0003.36,0002.16,0001.05,0000.14,0000.48,0000.40,0027.40,0025.50,0020.14,18.0,24.7,,00.0,0647.1,30.9
2021-11-06T18:47:00Z,00000200,01000000,0004.70,0003.24,0002.03,0000.64,0000.59,0000.88,0060.05,0055.54,0044.74,18.0,24.6,,00.0,0647.0,30.9
2021-11-06T18:48:00Z,00000200,01000000,0002.28,0000.96,0000.64,0000.12,0000.26,0000.03,0017.12,0015.88,0012.72,17.9,24.6,,00.0,0647.0,30.9
2021-11-06T18:49:00Z,00000200,01000000,0000.27,0000.44,-000.14,0000.12,-000.01,-000.11,0001.03,0000.58,0001.14,18.0,24.6,,00.0,0647.0,30.9
2021-11-06T18:50:00Z,00000200,01000000,0000.66,0000.56,0000.04,0000.22,-000.20,-000.09,0000.83,0000.97,0000.18,18.0,24.6,,00.0,0647.0,30.9
2021-11-06T18:51:00Z,00000200,01000000,-000.07,0000.23,-000.32,0000.02,-000.15,-000.19,0000.48,0000.85,0000.64,18.0,24.6,,00.0,0647.0,30.9
2021-11-06T18:52:00Z,00000200,01000000,0000.50,0000.28,-000.20,0000.23,0000.25,0000.25,0000.34,0000.10,-000.04,18.0,24.6,,00.0,0647.0,30.9
2021-11-06T18:53:00Z,00000200,01000000,0001.71,0001.39,0000.49,0000.23,0000.48,0000.08,0013.58,0012.14,0009.48,18.0,24.6,,00.0,0647.0,30.9
2021-11-06T18:54:00Z,00000200,01000000,0011.96,0008.02,0004.90,0002.63,0001.89,0001.46,0133.66,0122.97,0099.07,18.0,24.6,,00.0,0647.0,30.9
2021-11-06T18:55:00Z,00000200,01000000,0011.08,0008.05,0004.55,0001.81,0001.92,0001.04,0141.56,0132.19,0105.82,18.0,24.6,,00.0,0647.0,30.9
2021-11-06T18:56:00Z,00000200,01000000,0005.81,0004.13,0002.52,0000.85,0001.17,0001.09,0072.37,0067.15,0054.22,18.0,24.6,,00.0,0647.0,30.9
2021-11-06T18:57:00Z,00000200,41000000,,,,,,,0018.33,0017.70,0014.18,18.0,24.6,,00.0,0646.9,30.9
2021-11-06T18:58:00Z,00000200,61000000,,,,,,,0000.75,0000.43,0000.41,17.6,24.8,,00.0,0646.0,30.9
2021-11-06T18:59:00Z,00000200,21000000,,,,,,,0000.77,0000.59,0000.48,17.6,24.9,,00.0,0646.0,30.9
